Location: Burleson Alternative School
(32.5290°N, 97.3406°W)
Time: 02:57:16
(UTC+00:00)

Courier 1B Rocket - Pass Details

Date: 16 November 2024
Orbit: 920 x 1201 km, 28.2° (Epoch: 03 December)

Event Time Altitude Azimuth Distance (km) Brightness Sun altitude
Rises 01:29:53 0° 271° (W) 3,646 9.3 -25.6°
Reaches altitude 10° 01:32:47 10° 263° (W) 2,665 8.3 -26.2°
Maximum altitude 01:38:30 35° 199° (SSW) 1,439 6.0 -27.4°
Enters shadow 01:40:23 29° 165° (SSE) 1,611 6.0 -27.8°
